Change the Weather History Date:

Wednesday, July 31, 2013

  Actual Average Record
Temperature  
Mean Temperature 80 °F -  
Max Temperature 91 °F 87 °F 95 °F (2006)
Min Temperature 68 °F 64 °F 37 °F (2003)
Cooling Degree Days 14    
Growing Degree Days 30 (Base 50)    
Moisture  
Dew Point 61 °F    
Average Humidity 57    
Maximum Humidity 78    
Minimum Humidity 28    
Precipitation  
Precipitation 0.00 in 0.04 in - ()
Sea Level Pressure  
Sea Level Pressure 29.93 in    
Wind  
Wind Speed 5 mph ()    
Max Wind Speed 16 mph    
Max Gust Speed 23 mph    
Visibility 6.2 miles    
Events      
Averages and records for this station are not official NWS values.
T = Trace of Precipitation, MM = Missing Value Source: Averaged Metar Reports

Daily Weather History Graph

Daily Weather History Graph

Search for Another Location

Airport or City:

Trip Planner

Search our weather history database for the weather conditions in past years. The results will help you decide how hot, cold, wet, or windy it might be!

Date:

Astronomy

Jul. 31, 2013 Rise Set
Actual Time 6:02 AM CEST 8:28 PM CEST
Civil Twilight 5:31 AM CEST 9:00 PM CEST
Nautical Twilight 4:51 AM CEST 9:39 PM CEST
Astronomical Twilight 4:08 AM CEST 10:22 PM CEST
Moon 12:47 AM CEST (7/31) 3:29 PM CEST (7/31)
Length of Visible Light 15h 29m
Length of Day
14h 26m
Waning Crescent, 34% of the Moon is Illuminated
Jul 31
Waning Crescent
Aug 6
New
Aug 14
First Quarter
Aug 21
Full
Aug 28
Last Quarter

Hourly Weather History & Observations

Time (CEST) Temp. Heat Index Dew Point Humidity Pressure Visibility Wind Dir Wind Speed Gust Speed Precip Events Conditions
12:15 AM 75.2 °F - 62.6 °F 65% 29.95 in - North 2.3 mph - N/A   Clear
12:45 AM 75.2 °F - 62.6 °F 65% 29.95 in - NNE 2.3 mph - N/A   Clear
1:15 AM 73.4 °F - 60.8 °F 65% 29.92 in - NNE 3.5 mph - N/A   Clear
1:45 AM 73.4 °F - 60.8 °F 65% 29.92 in - NE 5.8 mph - N/A   Clear
2:15 AM 73.4 °F - 60.8 °F 65% 29.92 in - NE 6.9 mph - N/A   Clear
2:45 AM 73.4 °F - 60.8 °F 65% 29.92 in - NE 5.8 mph - N/A   Clear
3:15 AM 71.6 °F - 59.0 °F 64% 29.92 in - NNE 3.5 mph - N/A   Clear
3:45 AM 71.6 °F - 59.0 °F 64% 29.92 in - NE 3.5 mph - N/A   Clear
4:15 AM 69.8 °F - 62.6 °F 78% 29.92 in - NE 5.8 mph - N/A   Clear
4:45 AM 69.8 °F - 60.8 °F 73% 29.92 in - NNE 6.9 mph - N/A   Clear
5:15 AM 69.8 °F - 60.8 °F 73% 29.92 in - NNE 3.5 mph - N/A   Clear
5:45 AM 69.8 °F - 62.6 °F 78% 29.92 in - NE 3.5 mph - N/A   Clear
6:15 AM 68.0 °F - 60.8 °F 78% 29.92 in - NNE 2.3 mph - N/A   Clear
6:45 AM 68.0 °F - 60.8 °F 78% 29.95 in - NE 3.5 mph - N/A   Clear
7:15 AM 68.0 °F - 60.8 °F 78% 29.95 in - NNE 3.5 mph - N/A   Clear
7:45 AM 69.8 °F - 60.8 °F 73% 29.95 in - NE 4.6 mph - N/A   Clear
8:15 AM 75.2 °F - 62.6 °F 65% 29.95 in - NE 4.6 mph - N/A   Clear
8:45 AM 77.0 °F - 62.6 °F 61% 29.95 in - NE 4.6 mph - N/A   Clear
9:15 AM 77.0 °F - 60.8 °F 57% 29.95 in - North 5.8 mph - N/A   Clear
9:45 AM 78.8 °F - 60.8 °F 54% 29.98 in - North 5.8 mph - N/A   Clear
10:15 AM 80.6 °F 81.5 °F 60.8 °F 51% 29.98 in - NNE 4.6 mph - N/A   Clear
10:45 AM 82.4 °F 82.5 °F 59.0 °F 45% 29.98 in - North 4.6 mph - N/A   Clear
11:15 AM 84.2 °F 83.8 °F 59.0 °F 42% 29.98 in - NW 5.8 mph - N/A   Clear
11:45 AM 84.2 °F 83.0 °F 55.4 °F 37% 29.98 in 6.2 mi NNW 8.1 mph - N/A   Partly Cloudy
12:15 PM 84.2 °F 83.0 °F 55.4 °F 37% 29.98 in 6.2 mi NW 6.9 mph - N/A   Partly Cloudy
12:45 PM 86.0 °F 84.5 °F 55.4 °F 35% 29.98 in 6.2 mi West 4.6 mph - N/A   Partly Cloudy
1:15 PM 87.8 °F 85.7 °F 53.6 °F 31% 29.95 in 6.2 mi North 9.2 mph - N/A   Partly Cloudy
1:45 PM 87.8 °F 86.1 °F 55.4 °F 33% 29.95 in 6.2 mi North 8.1 mph - N/A   Partly Cloudy
2:15 PM 89.6 °F 87.3 °F 53.6 °F 29% 29.92 in 6.2 mi SW 2.3 mph - N/A   Partly Cloudy
2:45 PM 91.4 °F 89.1 °F 53.6 °F 28% 29.92 in 6.2 mi WSW 4.6 mph - N/A   Partly Cloudy
3:15 PM 91.4 °F 90.7 °F 59.0 °F 34% 29.92 in 6.2 mi WSW 12.7 mph - N/A   Partly Cloudy
3:45 PM 91.4 °F 91.4 °F 60.8 °F 36% 29.92 in 6.2 mi West 8.1 mph 23.0 mph N/A   Partly Cloudy
4:15 PM 87.8 °F 87.1 °F 59.0 °F 38% 29.92 in 6.2 mi West 11.5 mph - N/A   Partly Cloudy
4:45 PM 87.8 °F 87.1 °F 59.0 °F 38% 29.92 in 6.2 mi West 16.1 mph - N/A   Partly Cloudy
5:15 PM 86.0 °F 86.1 °F 60.8 °F 43% 29.92 in 6.2 mi West 12.7 mph - N/A   Partly Cloudy
5:45 PM 86.0 °F 86.1 °F 60.8 °F 43% 29.92 in 6.2 mi West 11.5 mph - N/A   Partly Cloudy
6:15 PM 84.2 °F 85.6 °F 64.4 °F 51% 29.92 in 6.2 mi West 9.2 mph - N/A   Partly Cloudy
6:45 PM 84.2 °F 85.6 °F 64.4 °F 51% 29.92 in 6.2 mi West 8.1 mph - N/A   Partly Cloudy
7:15 PM 84.2 °F 86.6 °F 66.2 °F 55% 29.92 in 6.2 mi WSW 6.9 mph - N/A   Partly Cloudy
7:45 PM 82.4 °F 84.6 °F 66.2 °F 58% 29.92 in 6.2 mi WSW 6.9 mph - N/A   Partly Cloudy
8:15 PM 78.8 °F - 66.2 °F 65% 29.92 in - SSW 5.8 mph - N/A   Clear
8:45 PM 77.0 °F - 66.2 °F 69% 29.92 in - South 5.8 mph - N/A   Clear
9:15 PM 77.0 °F - 66.2 °F 69% 29.92 in - South 4.6 mph - N/A   Clear
9:45 PM 77.0 °F - 66.2 °F 69% 29.92 in - SE 6.9 mph - N/A   Clear
10:15 PM 75.2 °F - 66.2 °F 73% 29.92 in - East 5.8 mph - N/A   Clear
10:45 PM 75.2 °F - 66.2 °F 73% 29.92 in - NNE 6.9 mph - N/A   Clear
11:15 PM 75.2 °F - 66.2 °F 73% 29.92 in - NE 6.9 mph - N/A   Clear
11:45 PM 75.2 °F - 66.2 °F 73% 29.92 in - NNE 4.6 mph - N/A   Clear